| time (UTC) | temp C | wind direction | speed KPH | gust KPH | rain 1hr cm | rain 24hr cm | rain mn cm | humidity % | barometer mb |
| 20260503200039 | 14 | 331 | 3.2 | 9.7 | 0.00 | 0.00 | 0.00 | 39 | 1018.4 |
| 20260503195525 | 14 | 305 | 4.8 | 9.7 | 0.00 | 0.00 | 0.00 | 36 | 1018.3 |
| 20260503195027 | 14 | 342 | 1.6 | 9.7 | 0.00 | 0.00 | 0.00 | 36 | 1018.5 |
| 20260503194555 | 14 | 262 | 4.8 | 9.7 | 0.00 | 0.00 | 0.00 | 37 | 1018.7 |
| 20260503194026 | 14 | 307 | 4.8 | 8.0 | 0.00 | 0.00 | 0.00 | 39 | 1018.6 |
| 20260503193530 | 14 | 307 | 3.2 | 6.4 | 0.00 | 0.00 | 0.00 | 37 | 1018.8 |
| 20260503193045 | 14 | 0 | 1.6 | 14.5 | 0.00 | 0.00 | 0.00 | 37 | 1018.9 |
| 20260503192525 | 14 | 285 | 4.8 | 14.5 | 0.00 | 0.00 | 0.00 | 39 | 1018.8 |
| 20260503192026 | 13 | 342 | 1.6 | 8.0 | 0.00 | 0.00 | 0.00 | 38 | 1018.9 |
| 20260503191547 | 13 | 34 | 3.2 | 8.0 | 0.00 | 0.00 | 0.00 | 37 | 1019.0 |
| 20260503191027 | 13 | 305 | 4.8 | 8.0 | 0.00 | 0.00 | 0.00 | 38 | 1019.1 |
| 20260503190527 | 13 | 259 | 3.2 | 8.0 | 0.00 | 0.00 | 0.00 | 39 | 1019.2 |
| 20260503190047 | 12 | 247 | 3.2 | 8.0 | 0.00 | 0.00 | 0.00 | 38 | 1019.2 |
| 20260503185523 | 12 | 1 | 1.6 | 4.8 | 0.00 | 0.00 | 0.00 | 40 | 1019.2 |
| 20260503185026 | 12 | 41 | 3.2 | 6.4 | 0.00 | 0.00 | 0.00 | 41 | 1019.1 |
| 20260503184543 | 13 | 19 | 1.6 | 11.3 | 0.00 | 0.00 | 0.00 | 39 | 1019.3 |
| 20260503184029 | 13 | 41 | 3.2 | 11.3 | 0.00 | 0.00 | 0.00 | 39 | 1019.5 |
| 20260503183522 | 13 | 16 | 4.8 | 9.7 | 0.00 | 0.00 | 0.00 | 39 | 1019.4 |
| 20260503183039 | 13 | 109 | 1.6 | 8.0 | 0.00 | 0.00 | 0.00 | 39 | 1019.4 |
| 20260503182525 | 13 | 35 | 3.2 | 8.0 | 0.00 | 0.00 | 0.00 | 41 | 1019.6 |
| 20260503182026 | 13 | 35 | 1.6 | 6.4 | 0.00 | 0.00 | 0.00 | 39 | 1019.7 |
| 20260503181547 | 13 | 293 | 3.2 | 9.7 | 0.00 | 0.00 | 0.00 | 38 | 1019.8 |
| 20260503181027 | 13 | 167 | 3.2 | 9.7 | 0.00 | 0.00 | 0.00 | 38 | 1019.7 |
| 20260503180527 | 13 | 344 | 3.2 | 8.0 | 0.00 | 0.00 | 0.00 | 40 | 1019.8 |
| 20260503180057 | 13 | 154 | 3.2 | 8.0 | 0.00 | 0.00 | 0.00 | 40 | 1019.9 |
| 20260503175526 | 12 | 14 | 4.8 | 8.0 | 0.00 | 0.00 | 0.00 | 39 | 1020.0 |
| 20260503175026 | 12 | 36 | 4.8 | 11.3 | 0.00 | 0.00 | 0.00 | 39 | 1020.1 |
| 20260503174545 | 12 | 305 | 3.2 | 11.3 | 0.00 | 0.00 | 0.00 | 40 | 1020.1 |
| 20260503174027 | 12 | 62 | 4.8 | 9.7 | 0.00 | 0.00 | 0.00 | 38 | 1020.3 |
| 20260503173527 | 12 | 292 | 3.2 | 9.7 | 0.00 | 0.00 | 0.00 | 38 | 1020.2 |
| 20260503173044 | 12 | 23 | 3.2 | 8.0 | 0.00 | 0.00 | 0.00 | 41 | 1020.2 |
| 20260503172526 | 12 | 231 | 3.2 | 14.5 | 0.00 | 0.00 | 0.00 | 41 | 1020.3 |
| 20260503172028 | 11 | 28 | 3.2 | 14.5 | 0.00 | 0.00 | 0.00 | 42 | 1020.4 |
| 20260503171546 | 11 | 341 | 4.8 | 14.5 | 0.00 | 0.00 | 0.00 | 41 | 1020.4 |
| 20260503171026 | 11 | 54 | 3.2 | 9.7 | 0.00 | 0.00 | 0.00 | 42 | 1020.4 |
| 20260503170527 | 11 | 304 | 1.6 | 8.0 | 0.00 | 0.00 | 0.00 | 42 | 1020.4 |
| 20260503150525 | 8 | 8 | 3.2 | 8.0 | 0.00 | 0.00 | 0.00 | 56 | 1021.3 |
| 20260503131028 | 3 | 0 | 0.0 | 1.6 | 0.00 | 0.00 | 0.00 | 82 | 1021.5 |
| 20260503130527 | 3 | 249 | 0.0 | 1.6 | 0.00 | 0.00 | 0.00 | 84 | 1021.5 |
| 20260503110524 | 1 | 0 | 0.0 | 1.6 | 0.00 | 0.00 | 0.00 | 93 | 1020.8 |
| 20260503081538 | 1 | 0 | 0.0 | 0.0 | 0.00 | 0.00 | 0.00 | 90 | 1019.9 |
| 20260503081026 | 1 | 0 | 0.0 | 0.0 | 0.00 | 0.00 | 0.00 | 90 | 1019.8 |
| 20260503080523 | 1 | 0 | 0.0 | 0.0 | 0.00 | 0.00 | 0.00 | 89 | 1019.8 |
| 20260503072525 | 2 | 0 | 0.0 | 0.0 | 0.00 | 0.00 | 0.00 | 87 | 1019.3 |
| 20260503072023 | 2 | 0 | 0.0 | 0.0 | 0.00 | 0.00 | 0.00 | 86 | 1019.3 |
| 20260503071556 | 2 | 0 | 0.0 | 0.0 | 0.00 | 0.00 | 0.00 | 87 | 1019.3 |
| 20260503071025 | 2 | 0 | 0.0 | 0.0 | 0.00 | 0.00 | 0.00 | 86 | 1019.3 |
| 20260503070527 | 2 | 0 | 0.0 | 0.0 | 0.00 | 0.00 | 0.00 | 86 | 1019.4 |
| 20260503055023 | 3 | 0 | 0.0 | 1.6 | 0.00 | 0.00 | 0.00 | 83 | 1019.3 |
| 20260503054557 | 3 | 0 | 0.0 | 1.6 | 0.00 | 0.00 | 0.00 | 84 | 1019.3 |
| 20260503054024 | 3 | 0 | 0.0 | 1.6 | 0.00 | 0.00 | 0.00 | 84 | 1019.3 |
| 20260503053524 | 3 | 0 | 0.0 | 1.6 | 0.00 | 0.00 | 0.00 | 84 | 1019.3 |
| 20260503053042 | 3 | 0 | 0.0 | 1.6 | 0.00 | 0.00 | 0.00 | 84 | 1019.2 |
| 20260503052525 | 3 | 0 | 0.0 | 1.6 | 0.00 | 0.00 | 0.00 | 84 | 1019.2 |
| 20260503052026 | 3 | 0 | 0.0 | 1.6 | 0.00 | 0.00 | 0.00 | 84 | 1019.3 |
| 20260503051546 | 3 | 0 | 0.0 | 1.6 | 0.00 | 0.00 | 0.00 | 84 | 1019.2 |
| 20260503051024 | 3 | 0 | 0.0 | 0.0 | 0.00 | 0.00 | 0.00 | 84 | 1019.2 |
| 20260503050524 | 3 | 0 | 0.0 | 0.0 | 0.00 | 0.00 | 0.00 | 85 | 1019.2 |
| 20260503050044 | 3 | 0 | 0.0 | 0.0 | 0.00 | 0.00 | 0.00 | 85 | 1019.4 |
| 20260503045524 | 3 | 0 | 0.0 | 0.0 | 0.00 | 0.00 | 0.00 | 84 | 1019.3 |
| 20260503045027 | 3 | 0 | 0.0 | 0.0 | 0.00 | 0.00 | 0.00 | 84 | 1019.4 |
| 20260503044540 | 3 | 0 | 0.0 | 0.0 | 0.00 | 0.00 | 0.00 | 85 | 1019.4 |
| 20260503044024 | 3 | 0 | 0.0 | 0.0 | 0.00 | 0.00 | 0.00 | 84 | 1019.4 |
| 20260503043526 | 3 | 0 | 0.0 | 0.0 | 0.00 | 0.00 | 0.00 | 83 | 1019.4 |
| 20260503043039 | 3 | 0 | 0.0 | 0.0 | 0.00 | 0.00 | 0.00 | 83 | 1019.5 |
| 20260503042524 | 3 | 0 | 0.0 | 0.0 | 0.00 | 0.00 | 0.00 | 82 | 1019.5 |
| 20260503042024 | 3 | 0 | 0.0 | 0.0 | 0.00 | 0.00 | 0.00 | 81 | 1019.5 |
| 20260503041542 | 3 | 0 | 0.0 | 0.0 | 0.00 | 0.00 | 0.00 | 80 | 1019.4 |
| 20260503041026 | 3 | 0 | 0.0 | 0.0 | 0.00 | 0.00 | 0.00 | 79 | 1019.3 |
| 20260503040524 | 3 | 0 | 0.0 | 1.6 | 0.00 | 0.00 | 0.00 | 79 | 1019.4 |
| 20260503040100 | 3 | 0 | 0.0 | 1.6 | 0.00 | 0.00 | 0.00 | 78 | 1019.3 |
| 20260503035523 | 3 | 0 | 0.0 | 1.6 | 0.00 | 0.00 | 0.00 | 79 | 1019.4 |
| 20260503035023 | 3 | 0 | 0.0 | 0.0 | 0.00 | 0.00 | 0.00 | 79 | 1019.4 |
| 20260503034543 | 3 | 0 | 0.0 | 0.0 | 0.00 | 0.00 | 0.00 | 79 | 1019.5 |
| 20260503034025 | 3 | 0 | 0.0 | 0.0 | 0.00 | 0.00 | 0.00 | 79 | 1019.6 |
| 20260503033523 | 3 | 0 | 0.0 | 0.0 | 0.00 | 0.00 | 0.00 | 78 | 1019.6 |
| 20260503033043 | 3 | 0 | 0.0 | 0.0 | 0.00 | 0.00 | 0.00 | 78 | 1019.5 |
| 20260503032525 | 3 | 0 | 0.0 | 0.0 | 0.00 | 0.00 | 0.00 | 78 | 1019.4 |
| 20260503032023 | 3 | 0 | 0.0 | 0.0 | 0.00 | 0.00 | 0.00 | 78 | 1019.4 |
| 20260503031548 | 3 | 0 | 0.0 | 0.0 | 0.00 | 0.00 | 0.00 | 78 | 1019.5 |
| 20260503031025 | 3 | 0 | 0.0 | 0.0 | 0.00 | 0.00 | 0.00 | 79 | 1019.5 |
| 20260503030524 | 3 | 0 | 0.0 | 0.0 | 0.00 | 0.00 | 0.00 | 79 | 1019.5 |
| 20260503030047 | 3 | 0 | 0.0 | 0.0 | 0.00 | 0.00 | 0.00 | 80 | 1019.5 |
| 20260503025523 | 3 | 0 | 0.0 | 0.0 | 0.00 | 0.00 | 0.00 | 80 | 1019.5 |
| 20260503025024 | 3 | 0 | 0.0 | 0.0 | 0.00 | 0.00 | 0.00 | 79 | 1019.6 |
| 20260503024547 | 4 | 0 | 0.0 | 1.6 | 0.00 | 0.00 | 0.00 | 78 | 1019.5 |
| 20260503024026 | 4 | 0 | 0.0 | 1.6 | 0.00 | 0.00 | 0.00 | 78 | 1019.6 |
| 20260503023523 | 4 | 0 | 0.0 | 1.6 | 0.00 | 0.00 | 0.00 | 77 | 1019.4 |
| 20260503023046 | 4 | 0 | 0.0 | 1.6 | 0.00 | 0.00 | 0.00 | 76 | 1019.3 |
| 20260503022523 | 4 | 0 | 0.0 | 1.6 | 0.00 | 0.00 | 0.00 | 76 | 1019.4 |
| 20260503022023 | 4 | 0 | 0.0 | 1.6 | 0.00 | 0.00 | 0.00 | 75 | 1019.5 |
| 20260503021543 | 4 | 0 | 0.0 | 1.6 | 0.00 | 0.00 | 0.00 | 75 | 1019.5 |
| 20260503021023 | 4 | 0 | 0.0 | 1.6 | 0.00 | 0.00 | 0.00 | 74 | 1019.6 |
| 20260503020523 | 4 | 0 | 0.0 | 3.2 | 0.00 | 0.00 | 0.00 | 74 | 1019.6 |
| 20260503020042 | 4 | 302 | 0.0 | 3.2 | 0.00 | 0.00 | 0.00 | 74 | 1019.8 |
| 20260503015527 | 5 | 304 | 0.0 | 3.2 | 0.00 | 0.00 | 0.00 | 73 | 1019.6 |
| 20260503015025 | 5 | 0 | 0.0 | 1.6 | 0.00 | 0.00 | 0.00 | 74 | 1019.7 |
| 20260503014549 | 5 | 0 | 0.0 | 1.6 | 0.00 | 0.00 | 0.00 | 73 | 1019.6 |
| 20260503014024 | 5 | 0 | 0.0 | 1.6 | 0.00 | 0.00 | 0.00 | 73 | 1019.5 |
| 20260503013523 | 5 | 0 | 0.0 | 1.6 | 0.00 | 0.00 | 0.00 | 73 | 1019.5 |
| 20260503013046 | 5 | 91 | 0.0 | 1.6 | 0.00 | 0.00 | 0.00 | 73 | 1019.3 |
| 20260503012524 | 5 | 53 | 0.0 | 3.2 | 0.00 | 0.00 | 0.00 | 74 | 1019.2 |
| 20260503012026 | 5 | 0 | 1.6 | 3.2 | 0.00 | 0.00 | 0.00 | 73 | 1019.2 |
| 20260503011537 | 5 | 0 | 0.0 | 1.6 | 0.00 | 0.00 | 0.00 | 74 | 1019.2 |
| 20260503011023 | 5 | 40 | 0.0 | 3.2 | 0.00 | 0.00 | 0.00 | 74 | 1019.3 |
| 20260503010523 | 5 | 0 | 0.0 | 3.2 | 0.00 | 0.00 | 0.00 | 75 | 1019.3 |
| 20260503010045 | 5 | 0 | 0.0 | 3.2 | 0.00 | 0.00 | 0.00 | 75 | 1019.1 |
| 20260503005523 | 5 | 0 | 0.0 | 3.2 | 0.00 | 0.00 | 0.00 | 75 | 1019.2 |
| 20260503005024 | 5 | 0 | 0.0 | 3.2 | 0.00 | 0.00 | 0.00 | 75 | 1019.1 |
| 20260503004541 | 5 | 272 | 0.0 | 3.2 | 0.00 | 0.00 | 0.00 | 74 | 1019.0 |
| 20260503004026 | 5 | 0 | 0.0 | 1.6 | 0.00 | 0.00 | 0.00 | 75 | 1019.0 |
| 20260503003524 | 5 | 0 | 0.0 | 1.6 | 0.00 | 0.00 | 0.00 | 75 | 1018.9 |
| 20260503003042 | 5 | 0 | 0.0 | 1.6 | 0.00 | 0.00 | 0.00 | 74 | 1018.8 |
| 20260503002527 | 5 | 309 | 0.0 | 3.2 | 0.00 | 0.00 | 0.00 | 73 | 1018.8 |
| 20260503002024 | 5 | 266 | 0.0 | 6.4 | 0.00 | 0.00 | 0.00 | 74 | 1018.8 |
| 20260503001553 | 6 | 257 | 0.0 | 6.4 | 0.00 | 0.00 | 0.00 | 73 | 1018.6 |
| 20260503001025 | 6 | 289 | 1.6 | 6.4 | 0.00 | 0.00 | 0.00 | 72 | 1018.5 |
| 20260503000523 | 6 | 51 | 1.6 | 8.0 | 0.00 | 0.00 | 0.00 | 72 | 1018.7 |
| 20260503000046 | 6 | 0 | 0.0 | 8.0 | 0.00 | 0.00 | 0.00 | 72 | 1018.6 |
| 20260502235524 | 6 | 32 | 0.0 | 4.8 | 0.00 | 0.00 | 0.00 | 72 | 1018.5 |
| 20260502235023 | 6 | 334 | 1.6 | 4.8 | 0.00 | 0.00 | 0.00 | 71 | 1018.4 |
| 20260502234544 | 6 | 0 | 0.0 | 3.2 | 0.00 | 0.00 | 0.00 | 71 | 1018.4 |
| 20260502234025 | 6 | 85 | 0.0 | 3.2 | 0.00 | 0.00 | 0.00 | 70 | 1018.4 |
| 20260502233523 | 6 | 75 | 1.6 | 4.8 | 0.00 | 0.00 | 0.00 | 70 | 1018.3 |
| 20260502233045 | 6 | 274 | 1.6 | 12.9 | 0.00 | 0.00 | 0.00 | 70 | 1018.2 |
| 20260502232526 | 7 | 83 | 3.2 | 12.9 | 0.00 | 0.00 | 0.00 | 69 | 1018.2 |
| 20260502232023 | 7 | 300 | 0.0 | 6.4 | 0.00 | 0.00 | 0.00 | 69 | 1018.0 |
| 20260502231545 | 7 | 302 | 3.2 | 8.0 | 0.00 | 0.00 | 0.00 | 68 | 1018.0 |
| 20260502231023 | 7 | 293 | 1.6 | 8.0 | 0.00 | 0.00 | 0.00 | 68 | 1018.0 |
| 20260502230523 | 7 | 42 | 1.6 | 6.4 | 0.00 | 0.00 | 0.00 | 67 | 1017.9 |
| 20260502230040 | 7 | 347 | 0.0 | 6.4 | 0.00 | 0.00 | 0.00 | 67 | 1017.8 |
| 20260502225526 | 7 | 33 | 1.6 | 8.0 | 0.00 | 0.00 | 0.00 | 64 | 1017.7 |
| 20260502225027 | 7 | 49 | 1.6 | 8.0 | 0.00 | 0.00 | 0.00 | 63 | 1017.7 |
| 20260502224538 | 8 | 12 | 3.2 | 8.0 | 0.00 | 0.00 | 0.00 | 62 | 1017.7 |
| 20260502224023 | 8 | 318 | 3.2 | 8.0 | 0.00 | 0.00 | 0.00 | 60 | 1017.7 |
| 20260502223524 | 8 | 265 | 1.6 | 4.8 | 0.00 | 0.00 | 0.00 | 59 | 1017.5 |
| 20260502223044 | 8 | 276 | 1.6 | 8.0 | 0.00 | 0.00 | 0.00 | 58 | 1017.6 |
| 20260502222524 | 8 | 13 | 1.6 | 8.0 | 0.00 | 0.00 | 0.00 | 58 | 1017.5 |
| 20260502222023 | 8 | 226 | 3.2 | 6.4 | 0.00 | 0.00 | 0.00 | 56 | 1017.4 |
| 20260502221544 | 8 | 312 | 1.6 | 6.4 | 0.00 | 0.00 | 0.00 | 54 | 1017.4 |
| 20260502221023 | 8 | 328 | 1.6 | 9.7 | 0.00 | 0.00 | 0.00 | 53 | 1017.4 |
| 20260502220523 | 8 | 326 | 3.2 | 9.7 | 0.00 | 0.00 | 0.00 | 54 | 1017.4 |
| 20260502220044 | 8 | 299 | 3.2 | 6.4 | 0.00 | 0.00 | 0.00 | 54 | 1017.3 |
| 20260502215527 | 8 | 328 | 1.6 | 4.8 | 0.00 | 0.00 | 0.00 | 53 | 1017.3 |
| 20260502215023 | 8 | 328 | 1.6 | 9.7 | 0.00 | 0.00 | 0.00 | 52 | 1017.2 |
| 20260502214542 | 8 | 288 | 3.2 | 9.7 | 0.00 | 0.00 | 0.00 | 53 | 1017.1 |
| 20260502214027 | 8 | 54 | 1.6 | 11.3 | 0.00 | 0.00 | 0.00 | 53 | 1017.0 |
| 20260502213523 | 8 | 301 | 3.2 | 11.3 | 0.00 | 0.00 | 0.00 | 52 | 1017.0 |
| 20260502213039 | 9 | 307 | 4.8 | 14.5 | 0.00 | 0.00 | 0.00 | 52 | 1017.1 |
| 20260502212527 | 9 | 274 | 3.2 | 14.5 | 0.00 | 0.00 | 0.00 | 52 | 1017.2 |
| 20260502212023 | 9 | 310 | 4.8 | 14.5 | 0.00 | 0.00 | 0.00 | 51 | 1016.9 |
| 20260502211540 | 9 | 319 | 1.6 | 8.0 | 0.00 | 0.00 | 0.00 | 51 | 1016.9 |
| 20260502211026 | 9 | 272 | 1.6 | 8.0 | 0.00 | 0.00 | 0.00 | 50 | 1016.8 |
| 20260502210522 | 9 | 51 | 3.2 | 8.0 | 0.00 | 0.00 | 0.00 | 52 | 1016.9 |
| 20260502210100 | 9 | 303 | 3.2 | 11.3 | 0.00 | 0.00 | 0.00 | 51 | 1016.9 |
| 20260502205527 | 9 | 2 | 3.2 | 11.3 | 0.00 | 0.00 | 0.00 | 52 | 1016.7 |
| 20260502205023 | 9 | 23 | 1.6 | 4.8 | 0.00 | 0.00 | 0.00 | 52 | 1016.8 |
| 20260502204547 | 9 | 0 | 1.6 | 6.4 | 0.00 | 0.00 | 0.00 | 52 | 1016.9 |
| 20260502204024 | 9 | 103 | 3.2 | 6.4 | 0.00 | 0.00 | 0.00 | 50 | 1016.7 |
| 20260502203528 | 9 | 313 | 3.2 | 8.0 | 0.00 | 0.00 | 0.00 | 50 | 1016.9 |
| 20260502203044 | 10 | 294 | 4.8 | 8.0 | 0.00 | 0.00 | 0.00 | 50 | 1017.0 |
| 20260502202527 | 10 | 351 | 1.6 | 6.4 | 0.00 | 0.00 | 0.00 | 51 | 1017.0 |
| 20260502202027 | 10 | 11 | 3.2 | 8.0 | 0.00 | 0.00 | 0.00 | 53 | 1017.0 |
| 20260502201548 | 9 | 12 | 1.6 | 8.0 | 0.00 | 0.00 | 0.00 | 50 | 1017.0 |
| 20260502201027 | 9 | 284 | 1.6 | 8.0 | 0.00 | 0.00 | 0.00 | 51 | 1017.0 |
| 20260502200528 | 9 | 303 | 3.2 | 12.9 | 0.00 | 0.00 | 0.00 | 49 | 1017.1 |